Weather History for Jefferson City, MO

Change the Weather History Date:

Thursday, November 1, 2012

  Actual Average Record
Temperature  
Mean Temperature 53 °F -  
Max Temperature 71 °F 65 °F 84 °F (1938)
Min Temperature 35 °F 41 °F 21 °F (1930)
Degree Days  
Heating Degree Days 12    
Growing Degree Days 3 (Base 50)    
Moisture  
Dew Point 36 °F    
Average Humidity 58    
Maximum Humidity 82    
Minimum Humidity 29    
Precipitation  
Precipitation 0.00 in - - ()
Sea Level Pressure  
Sea Level Pressure 29.93 in    
Wind  
Wind Speed 1 mph (SW)    
Max Wind Speed 8 mph    
Max Gust Speed -    
Visibility 10 miles    
Events      
Averages and records for this station are not official NWS values.
T = Trace of Precipitation, MM = Missing Value Source: NWS Daily Summary

Daily Weather History Graph

Daily Weather History Graph

Search for Another Location

Airport:

Trip Planner

Search our weather history database for the weather conditions in past years. The results will help you decide how hot, cold, wet, or windy it might be!

Date:

Astronomy

Nov. 01, 2012 Rise Set
Actual Time 7:35 AM CDT 6:07 PM CDT
Civil Twilight 7:08 AM CDT 6:35 PM CDT
Nautical Twilight 6:36 AM CDT 7:06 PM CDT
Astronomical Twilight 6:05 AM CDT 7:37 PM CDT
Moon 8:06 PM CDT (11/1) 10:07 AM CDT (11/1)
Length of Visible Light 11h 27m
Length of Day
10h 32m
Waning Gibbous, 93% of the Moon is Illuminated
Nov 1
Waning Gibbous
Nov 6
Last Quarter
Nov 13
New
Nov 20
First Quarter
Nov 28
Full

Hourly Weather History & Observations

Time (CDT) Temp. Windchill Dew Point Humidity Pressure Visibility Wind Dir Wind Speed Gust Speed Precip Events Conditions
12:53 AM 37.9 °F - 28.9 °F 70% 29.99 in 10.0 mi Calm Calm - N/A   Clear
1:53 AM 36.0 °F - 28.0 °F 73% 30.00 in 9.0 mi Calm Calm - N/A   Clear
2:53 AM 35.1 °F - 28.9 °F 78% 30.00 in 10.0 mi Calm Calm - N/A   Clear
3:53 AM 35.1 °F - 28.9 °F 78% 29.99 in 10.0 mi Calm Calm - N/A   Clear
4:53 AM 35.1 °F - 28.9 °F 78% 29.99 in 10.0 mi Calm Calm - N/A   Clear
7:53 AM 37.0 °F - 32.0 °F 82% 30.01 in 10.0 mi Calm Calm - N/A   Clear
8:53 AM 41.0 °F 39.0 °F 35.1 °F 79% 30.01 in 10.0 mi ESE 3.5 mph - N/A   Clear
9:53 AM 45.0 °F - 37.0 °F 74% 30.01 in 10.0 mi Calm Calm - N/A   Scattered Clouds
10:53 AM 54.0 °F - 37.0 °F 53% 30.00 in 10.0 mi Calm Calm - N/A   Clear
11:53 AM 60.1 °F - 36.0 °F 41% 29.98 in 10.0 mi SW 4.6 mph - N/A   Clear
12:53 PM 64.9 °F - 37.0 °F 36% 29.94 in 10.0 mi WSW 4.6 mph - N/A   Clear
1:53 PM 68.0 °F - 37.9 °F 33% 29.91 in 10.0 mi SW 4.6 mph - N/A   Partly Cloudy
2:53 PM 71.1 °F - 37.9 °F 30% 29.88 in 10.0 mi Variable 6.9 mph - N/A   Mostly Cloudy
3:53 PM 71.1 °F - 37.0 °F 29% 29.85 in 6.0 mi SW 4.6 mph - N/A   Haze
4:53 PM 71.1 °F - 37.9 °F 30% 29.85 in 10.0 mi SW 8.1 mph - N/A   Clear
5:53 PM 68.0 °F - 37.9 °F 33% 29.84 in 3.0 mi WSW 4.6 mph - N/A   Haze
6:53 PM 61.0 °F - 39.9 °F 46% 29.86 in 10.0 mi Calm Calm - N/A   Clear
7:53 PM 55.9 °F - 39.9 °F 55% 29.86 in 10.0 mi Calm Calm - N/A   Clear
8:53 PM 53.1 °F - 41.0 °F 64% 29.86 in 10.0 mi Calm Calm - N/A   Clear
9:53 PM 48.9 °F - 39.9 °F 71% 29.87 in 10.0 mi Calm Calm - N/A   Clear
10:53 PM 48.9 °F - 41.0 °F 74% 29.89 in 10.0 mi Calm Calm - N/A   Clear
11:53 PM 48.9 °F - 39.9 °F 71% 29.91 in 10.0 mi West 3.5 mph - N/A   Clear